When you browse on this site, cookies collect data to enhance your experience and personalize the content and advertising you see.
Visit our Privacy Policy to learn more. By continuing to use the site, you agree to this use of cookies and data.
  • In Deutschland
  • Länderverzeichnis
  • Für 7 Tage
  • Wassertemperatur
  • Wetterkarte
  • Widgets
  • user-avatar
    Anmelden

    Stündliche Wetter Barisal

    Heute, 19 September, Donnerstag

    Zeit Temperatur Niederschläge Wind Luftdruck Luftfeuchtigkeit
    00:00 +30°C° 0 mm 1 m/S 757 mmHg 81%
    01:00 +29°C° 0 mm 1 m/S 756 mmHg 82%
    02:00 +27°C° 0 mm 0 m/S 756 mmHg 83%
    03:00 +27°C° 0 mm 0 m/S 755 mmHg 84%
    04:00 +27°C° 0 mm 0 m/S 756 mmHg 84%
    05:00 +27°C° 0 mm 0 m/S 756 mmHg 84%
    06:00 +27°C° 0 mm 0 m/S 756 mmHg 85%
    07:00 +28°C° 0 mm 0 m/S 756 mmHg 77%
    08:00 +32°C° 0 mm 1 m/S 757 mmHg 70%
    09:00 +33°C° 0 mm 1 m/S 757 mmHg 62%
    10:00 +34°C° 0 mm 1 m/S 757 mmHg 58%
    11:00 +35°C° 0 mm 1 m/S 756 mmHg 53%
    12:00 +36°C° 0 mm 1 m/S 756 mmHg 49%
    13:00 +37°C° 0 mm 2 m/S 755 mmHg 50%
    14:00 +37°C° 0 mm 2 m/S 754 mmHg 51%
    15:00 +37°C° 0 mm 2 m/S 753 mmHg 52%
    16:00 +36°C° 0.1 mm 2 m/S 753 mmHg 57%
    17:00 +34°C° 0.1 mm 3 m/S 753 mmHg 63%
    18:00 +33°C° 0.1 mm 3 m/S 753 mmHg 69%
    19:00 +33°C° 0 mm 3 m/S 754 mmHg 71%
    20:00 +31°C° 0 mm 3 m/S 755 mmHg 73%
    21:00 +30°C° 0 mm 3 m/S 755 mmHg 76%
    22:00 +30°C° 0 mm 3 m/S 755 mmHg 77%
    23:00 +30°C° 0 mm 3 m/S 755 mmHg 78%

    Morgen, 20 September, Freitag

    Zeit Temperatur Niederschläge Wind Luftdruck Luftfeuchtigkeit
    00:00 +30°C° 0 mm 2 m/S 755 mmHg 79%
    01:00 +29°C° 0 mm 2 m/S 755 mmHg 81%
    02:00 +29°C° 0 mm 2 m/S 755 mmHg 82%
    03:00 +29°C° 0 mm 2 m/S 754 mmHg 84%
    04:00 +29°C° 0 mm 2 m/S 755 mmHg 84%
    05:00 +29°C° 0 mm 2 m/S 755 mmHg 85%
    06:00 +28°C° 0 mm 2 m/S 755 mmHg 85%
    07:00 +30°C° 0.3 mm 2 m/S 756 mmHg 79%
    08:00 +31°C° 0.3 mm 2 m/S 756 mmHg 73%
    09:00 +32°C° 0.3 mm 2 m/S 756 mmHg 67%
    10:00 +33°C° 0.9 mm 1 m/S 756 mmHg 63%
    11:00 +34°C° 0.9 mm 1 m/S 756 mmHg 59%
    12:00 +34°C° 0.9 mm 0 m/S 755 mmHg 56%
    13:00 +35°C° 0.9 mm 1 m/S 754 mmHg 56%
    14:00 +35°C° 0.9 mm 1 m/S 753 mmHg 56%
    15:00 +35°C° 0.9 mm 1 m/S 753 mmHg 56%
    16:00 +34°C° 1.3 mm 1 m/S 753 mmHg 62%
    17:00 +33°C° 1.3 mm 1 m/S 753 mmHg 67%
    18:00 +32°C° 1.3 mm 1 m/S 753 mmHg 73%
    19:00 +32°C° 0.1 mm 2 m/S 753 mmHg 75%
    20:00 +31°C° 0.1 mm 2 m/S 754 mmHg 77%
    21:00 +31°C° 0.1 mm 2 m/S 754 mmHg 80%
    22:00 +30°C° 0 mm 2 m/S 754 mmHg 80%
    23:00 +30°C° 0 mm 2 m/S 754 mmHg 81%

    übermorgen, 21 September, Samstag

    Zeit Temperatur Niederschläge Wind Luftdruck Luftfeuchtigkeit
    00:00 +30°C° 0 mm 2 m/S 754 mmHg 82%
    01:00 +30°C° 0 mm 2 m/S 754 mmHg 83%
    02:00 +29°C° 0 mm 2 m/S 754 mmHg 84%
    03:00 +29°C° 0 mm 2 m/S 753 mmHg 84%
    04:00 +29°C° 0.1 mm 2 m/S 753 mmHg 85%
    05:00 +29°C° 0.1 mm 2 m/S 754 mmHg 85%
    06:00 +29°C° 0.1 mm 2 m/S 754 mmHg 86%
    07:00 +30°C° 0 mm 2 m/S 754 mmHg 80%
    08:00 +31°C° 0 mm 2 m/S 755 mmHg 74%
    09:00 +32°C° 0 mm 2 m/S 755 mmHg 68%
    10:00 +35°C° 0 mm 2 m/S 755 mmHg 64%
    11:00 +36°C° 0 mm 2 m/S 754 mmHg 60%
    12:00 +36°C° 0 mm 1 m/S 754 mmHg 55%
    13:00 +36°C° 0.4 mm 1 m/S 753 mmHg 56%
    14:00 +35°C° 0.4 mm 1 m/S 752 mmHg 56%
    15:00 +35°C° 0.4 mm 1 m/S 752 mmHg 57%
    16:00 +34°C° 0.5 mm 1 m/S 752 mmHg 62%
    17:00 +34°C° 0.5 mm 2 m/S 752 mmHg 68%
    18:00 +32°C° 0.5 mm 2 m/S 753 mmHg 74%
    19:00 +32°C° 0 mm 2 m/S 753 mmHg 76%
    20:00 +31°C° 0 mm 2 m/S 754 mmHg 78%
    21:00 +31°C° 0 mm 2 m/S 754 mmHg 79%
    22:00 +31°C° 0 mm 2 m/S 754 mmHg 80%
    23:00 +30°C° 0 mm 2 m/S 754 mmHg 81%

    22 September, Sonntag

    Zeit Temperatur Niederschläge Wind Luftdruck Luftfeuchtigkeit
    00:00 +30°C° 0 mm 2 m/S 754 mmHg 81%
    01:00 +30°C° 1.3 mm 2 m/S 754 mmHg 82%
    02:00 +30°C° 1.3 mm 2 m/S 754 mmHg 82%
    03:00 +29°C° 1.3 mm 2 m/S 754 mmHg 82%
    04:00 +29°C° 3.4 mm 2 m/S 754 mmHg 84%
    05:00 +29°C° 3.4 mm 2 m/S 754 mmHg 86%
    06:00 +28°C° 3.4 mm 3 m/S 755 mmHg 88%
    07:00 +28°C° 1.6 mm 3 m/S 755 mmHg 88%
    08:00 +28°C° 1.6 mm 4 m/S 756 mmHg 88%
    09:00 +28°C° 1.6 mm 4 m/S 756 mmHg 88%
    10:00 +29°C° 0 mm 4 m/S 756 mmHg 85%
    11:00 +30°C° 0 mm 4 m/S 756 mmHg 81%
    12:00 +31°C° 0 mm 3 m/S 755 mmHg 77%
    13:00 +31°C° 0 mm 3 m/S 755 mmHg 74%
    14:00 +33°C° 0 mm 3 m/S 754 mmHg 72%
    15:00 +33°C° 0 mm 3 m/S 754 mmHg 69%
    16:00 +31°C° 0 mm 3 m/S 754 mmHg 72%
    17:00 +31°C° 0 mm 2 m/S 754 mmHg 75%
    18:00 +30°C° 0 mm 2 m/S 755 mmHg 79%
    19:00 +30°C° 0 mm 2 m/S 755 mmHg 80%
    20:00 +29°C° 0 mm 2 m/S 755 mmHg 82%
    21:00 +29°C° 0 mm 2 m/S 756 mmHg 84%
    22:00 +29°C° 0 mm 2 m/S 756 mmHg 84%
    23:00 +29°C° 0 mm 2 m/S 756 mmHg 84%

    23 September, Montag

    Zeit Temperatur Niederschläge Wind Luftdruck Luftfeuchtigkeit
    00:00 +29°C° 0 mm 2 m/S 756 mmHg 84%
    01:00 +29°C° 0 mm 2 m/S 756 mmHg 84%
    02:00 +29°C° 0 mm 2 m/S 756 mmHg 85%
    03:00 +29°C° 0 mm 2 m/S 755 mmHg 85%
    04:00 +29°C° 0.3 mm 2 m/S 756 mmHg 85%
    05:00 +29°C° 0.3 mm 2 m/S 756 mmHg 85%
    06:00 +29°C° 0.3 mm 2 m/S 756 mmHg 85%
    07:00 +30°C° 1.4 mm 3 m/S 757 mmHg 81%
    08:00 +32°C° 1.4 mm 4 m/S 757 mmHg 77%
    09:00 +32°C° 1.4 mm 5 m/S 757 mmHg 73%
    10:00 +32°C° 0.7 mm 5 m/S 757 mmHg 73%
    11:00 +32°C° 0.7 mm 4 m/S 757 mmHg 73%
    12:00 +32°C° 0.7 mm 4 m/S 756 mmHg 74%
    13:00 +32°C° 0.5 mm 4 m/S 756 mmHg 73%
    14:00 +32°C° 0.5 mm 4 m/S 755 mmHg 73%
    15:00 +32°C° 0.5 mm 4 m/S 755 mmHg 73%
    16:00 +32°C° 0.2 mm 4 m/S 755 mmHg 76%
    17:00 +30°C° 0.2 mm 3 m/S 755 mmHg 79%
    18:00 +29°C° 0.2 mm 3 m/S 755 mmHg 82%
    19:00 +29°C° 0 mm 3 m/S 756 mmHg 83%
    20:00 +29°C° 0 mm 3 m/S 756 mmHg 84%
    21:00 +29°C° 0 mm 2 m/S 757 mmHg 85%
    22:00 +29°C° 0 mm 2 m/S 757 mmHg 85%
    23:00 +29°C° 0 mm 2 m/S 757 mmHg 85%

    24 September, Dienstag

    Zeit Temperatur Niederschläge Wind Luftdruck Luftfeuchtigkeit
    00:00 +29°C° 0 mm 2 m/S 757 mmHg 85%
    01:00 +29°C° 0.1 mm 2 m/S 757 mmHg 85%
    02:00 +29°C° 0.1 mm 1 m/S 756 mmHg 85%
    03:00 +29°C° 0.1 mm 1 m/S 756 mmHg 85%
    04:00 +29°C° 0.8 mm 1 m/S 756 mmHg 86%
    05:00 +28°C° 0.8 mm 1 m/S 756 mmHg 86%
    06:00 +28°C° 0.8 mm 2 m/S 756 mmHg 86%
    07:00 +29°C° 1.1 mm 2 m/S 757 mmHg 81%
    08:00 +31°C° 1.1 mm 3 m/S 757 mmHg 76%
    09:00 +33°C° 1.1 mm 3 m/S 758 mmHg 71%
    10:00 +33°C° 0.3 mm 3 m/S 757 mmHg 68%
    11:00 +34°C° 0.3 mm 4 m/S 757 mmHg 64%
    12:00 +35°C° 0.3 mm 4 m/S 757 mmHg 61%
    13:00 +34°C° 0.3 mm 4 m/S 756 mmHg 62%
    14:00 +34°C° 0.3 mm 4 m/S 756 mmHg 62%
    15:00 +34°C° 0.3 mm 4 m/S 755 mmHg 62%
    16:00 +33°C° 0 mm 3 m/S 756 mmHg 66%
    17:00 +31°C° 0 mm 3 m/S 756 mmHg 69%
    18:00 +30°C° 0 mm 2 m/S 756 mmHg 73%
    19:00 +29°C° 0 mm 2 m/S 757 mmHg 74%
    20:00 +29°C° 0 mm 2 m/S 757 mmHg 76%
    21:00 +29°C° 0 mm 2 m/S 758 mmHg 77%
    22:00 +29°C° 0 mm 2 m/S 758 mmHg 79%
    23:00 +28°C° 0 mm 2 m/S 758 mmHg 80%
    Mehr zeigen